Regional Weather Roundup
Issued by NWS

Home | Current Version | Previous Version | Text Only | Print | Product List | Glossary On
Versions: 1 2 3 4 5 6 7 8 9 10 11 12 13 14 15 16 17 18 19 20 21 22 23 24 25 26 27 28 29 30 31 32 33 34 35 36 37 38 39 40 41 42 43 44 45 46 47 48 49 50
000
ASUS43 KLMK 051510
RWRKY
KENTUCKY REGIONAL WEATHER ROUNDUP
NATIONAL WEATHER SERVICE LOUISVILLE KY
1100 AM EDT THU MAY 05 2016

NOTE "FAIR" INDICATES FEW OR NO CLOUDS BELOW 12,000 FEET
WITH NO SIGNIFICANT WEATHER AND/OR OBSTRUCTIONS TO VISIBILITY.

KYZ001>023-026-027-061>063-070>075-051600-
WESTERN AND SOUTH CENTRAL KENTUCKY

CITY           SKY/WX    TMP DP  RH WIND       PRES   REMARKS
PADUCAH        MOSUNNY   59  40  49 N20       29.93R
HENDERSON      CLOUDY    48  37  66 NW6       29.92R
OWENSBORO      CLOUDY    49  40  71 N12G20    29.91R
HOPKINSVILLE   PTSUNNY   54  42  63 N14G25    29.88R
BOWLING GREEN  CLOUDY    52  40  63 N10G20    29.86R
GLASGOW        CLOUDY    46  42  84 N13G22    29.84R
$$

KYZ024-025-028>034-038-045-046-053-051600-
NORTH CENTRAL KENTUCKY

CITY           SKY/WX    TMP DP  RH WIND       PRES   REMARKS
LOUISVILLE/SDF LGT RAIN  48  40  73 N9        29.86R
LOUISVILLE/LOU CLOUDY    48  40  73 N10       29.86R
FORT KNOX      CLOUDY    47  40  77 N7        29.83R
$$

KYZ035>037-039>044-047>052-055>060-089>105-051600-
NORTHEAST KENTUCKY

CITY           SKY/WX    TMP DP  RH WIND       PRES   REMARKS
LEXINGTON      CLOUDY    48  39  71 N10       29.82R
COVINGTON      PTSUNNY   49  37  63 N9        29.83R
FRANKFORT      PTSUNNY   48  37  65 VRB6      29.82R
$$

KYZ054-064>069-076>088-106>120-051600-
SOUTHEAST KENTUCKY

CITY           SKY/WX    TMP DP  RH WIND       PRES   REMARKS
JACKSON        PTSUNNY   48  40  73 VRB5      29.77R
LONDON         LGT RAIN  46  41  82 N6        29.79R
SOMERSET       CLOUDY    45  41  87 N8        29.81R
MIDDLESBORO    CLOUDY    46  43  90 NE5       29.79S
MONTICELLO     LGT RAIN  46  43  89 N20       29.82R
$$




USA.gov is the U.S. government's official web portal to all federal, state and local government web resources and services.